User: anonymous
Location: The D'Auria's Ocala Star Observatory
(29.0276°N, 82.1742°W)
Time: 03:29:17
(UTC-04:00)
Language:

Okean 3 Rocket - Orbit

View from above orbital plane
View from above orbital plane
View from above satellite
View from above satellite

Ground track
Ground track

The orbit data is extracted from the following two-line orbital elements,

1 21398U 91039B   14234.26756341  .00000168  00000-0  19499-4 0  8230
2 21398 082.5215 104.6888 0020336 320.2212 178.1393 14.79190687251629
Epoch (UTC): 22 August 2014 06:25:17
Eccentricity: 0.0020336
inclination: 82.5215°
perigee height: 617 km
apogee height: 646 km
right ascension of ascending node: 104.6888°
argument of perigee: 320.2212°
revolutions per day: 14.79190687
mean anomaly at epoch: 178.1393°
orbit number at epoch: 25162

The dashed part of the orbit path shows where the satellite is in the earth's shadow,  

DLR